This is the latest recevied weather packets stored in our database for station/object KB1FFS. If no packets are shown the sender has not sent any weather packets the latest 10 day(s).
| Time | Temp. | Humidity | Pressure | Rain* | Wind** | Luminosity | Snow |
|---|---|---|---|---|---|---|---|
| 1777835803 | 30° C | 32% | 1019.8 hPa | 0 mm | - | 944 W/m² | - |
| 1777835500 | 30° C | 31% | 1020 hPa | 0 mm | - | 1024 W/m² | - |
| 1777835198 | 30° C | 30% | 1019.8 hPa | 0 mm | - | 970 W/m² | - |
| 1777834894 | 30° C | 31% | 1020 hPa | 0 mm | - | 978 W/m² | - |
| 1777834591 | 30° C | 31% | 1020.1 hPa | 0 mm | - | 955 W/m² | - |
| 1777834286 | 30° C | 32% | 1020.2 hPa | 0 mm | - | 955 W/m² | - |
| 1777833981 | 29.44° C | 33% | 1020.3 hPa | 0 mm | - | 942 W/m² | - |
| 1777833678 | 29.44° C | 34% | 1020.6 hPa | 0 mm | - | 951 W/m² | - |
| 1777833375 | 29.44° C | 33% | 1020.4 hPa | 0 mm | - | 952 W/m² | - |
| 1777833072 | 29.44° C | 35% | 1020.3 hPa | 0 mm | - | 948 W/m² | - |
| 1777832771 | 29.44° C | 35% | 1020.6 hPa | 0 mm | - | 943 W/m² | - |
| 1777832468 | 29.44° C | 34% | 1020.8 hPa | 0 mm | - | 944 W/m² | - |
| 1777832165 | 29.44° C | 34% | 1020.9 hPa | 0 mm | - | 946 W/m² | - |
| 1777831861 | 29.44° C | 35% | 1021 hPa | 0 mm | - | 936 W/m² | - |
| 1777831559 | 28.89° C | 35% | 1020.9 hPa | 0 mm | - | 936 W/m² | - |
| 1777831256 | 28.89° C | 33% | 1021 hPa | 0 mm | - | 932 W/m² | - |
| 1777830953 | 28.89° C | 34% | 1021 hPa | 0 mm | - | 924 W/m² | - |
| 1777830650 | 28.89° C | 37% | 1021.1 hPa | 0 mm | - | 922 W/m² | - |
| 1777830347 | 28.33° C | 35% | 1021.3 hPa | 0 mm | - | 921 W/m² | - |
| 1777830044 | 28.89° C | 38% | 1021.4 hPa | 0 mm | - | 913 W/m² | - |
| 1777829739 | 28.33° C | 39% | 1021.5 hPa | 0 mm | - | 907 W/m² | - |
| 1777829435 | 28.33° C | 37% | 1021.5 hPa | 0 mm | - | 903 W/m² | - |
| 1777829133 | 28.33° C | 39% | 1021.7 hPa | 0 mm | - | 898 W/m² | - |
| 1777828830 | 28.33° C | 36% | 1021.7 hPa | 0 mm | - | 890 W/m² | - |
| 1777828526 | 28.33° C | 38% | 1021.7 hPa | 0 mm | - | 883 W/m² | - |
* Rain latest hour (hover to see other rain measurements)
** Current wind speed in m/s (hover to see current wind gust speed)